Location: Casco Millpond
(44.5581°N, 87.6111°W)
Time: 22:37:43
(UTC+00:00)

Cosmos 1340 Rocket - Pass Details

Date: 16 January 2026
Orbit: 486 x 516 km, 81.2° (Epoch: 13 February)

Event Time Altitude Azimuth Distance (km) Brightness Sun altitude
Rises 23:39:29 0° 356° (N) 2,627 6.1 -10.9°
Reaches altitude 10° 23:41:44 10° 5° (N) 1,741 5.1 -11.2°
Maximum altitude 23:45:20 39° 75° (ENE) 790 3.1 -11.8°
Drops below altitude 10° 23:48:56 10° 145° (SE) 1,739 5.2 -12.5°
Sets 23:51:09 0° 153° (SSE) 2,623 6.2 -12.8°
